{"data":{"norad_id":63747,"epoch":"2026-05-25T03:30:19.829376Z","epoch_age_seconds":65704,"freshness":"FRESH","line1":"1 63747U 25088Z   26145.14606284  .00001158  00000+0  18086-3 0  9999","line2":"2 63747  51.9015 110.0169 0000663  68.3835 291.7198 14.79949280 59145","mean_motion":14.7994928,"eccentricity":6.63e-5,"inclination_deg":51.9015,"raan_deg":110.0169,"arg_perigee_deg":68.3835,"mean_anomaly_deg":291.7198,"bstar":0.00018086,"rev_number":5914,"period_min":97.300631816247,"perigee_km":629.01963243224,"apogee_km":629.94884300836,"semimajor_km":7007.6212377203,"source":"CELESTRAK","updated_at":"2026-05-25T13:38:03.930962Z"}}